Location: Ajisawe
(8.4333°N, 4.3833°E)
Time: 01:59:36
(UTC+00:00)

Courier 1B Rocket - Pass Details

Date: 29 April 2021
Orbit: 920 x 1202 km, 28.3° (Epoch: 13 May)

Event Time Altitude Azimuth Distance (km) Brightness Sun altitude
Rises 01:55:18 0° 253° (WSW) 3,989 - -49.3°
Reaches altitude 10° 02:01:41 10° 214° (SW) 3,091 - -48.0°
Maximum altitude 02:02:43 10° 206° (SSW) 3,077 - -47.8°
Drops below altitude 10° 02:03:46 10° 198° (SSW) 3,105 - -47.6°
Sets 02:10:21 0° 159° (SSE) 4,092 - -46.2°
